Regional Weather Roundup
Issued by NWS Binghamton, NY

Home | Current Version | Previous Version | Text Only | Print | Product List | Glossary On
Versions: 1 2 3 4 5 6 7 8 9 10 11 12 13 14 15 16 17 18 19 20 21 22 23 24 25 26 27 28 29 30 31 32 33 34 35 36 37 38 39 40 41 42 43 44 45 46 47 48 49 50
000
ASUS41 KBGM 241310
RWRBGM
RWRBGM
BINGHAMTON REGIONAL WEATHER ROUNDUP
NATIONAL WEATHER SERVICE BINGHAMTON NY
900 AM EDT THU JUL 24 2014

Note: "fair" indicates few or no clouds below 12,000 feet with no
significant weather and/or obstructions to visibility.

* = Station(s) that does not report precipitation, such as rain,
snow, etc, also no thunder or fog.

!NYZ009-015>018-022>025-036-037-044>046-055>057-062-241400
...CENTRAL NEW YORK...

CITY           SKY/WX    TMP DP  RH WIND       PRES   REMARKS
BINGHAMTON     MOSUNNY   62  54  74 N10       29.98S
CORTLAND       FAIR      63  54  72 CALM      30.00S
DANSVILLE        N/A    N/A N/A N/A MISG      30.04R
ELMIRA         MOSUNNY   66  55  67 N10       29.99S
ITHACA         MOSUNNY   64  55  72 NW8       30.01S
HAMILTON       SUNNY     63  54  72 N3        29.99S
MONTICELLO     MOSUNNY   64  59  82 N8        29.94S
NORWICH        SUNNY     63  55  77 N5        29.98S
PENN YAN       CLOUDY    64  54  69 VRB5      30.02R
ROME           MOSUNNY   62  52  69 N5        29.99R
SIDNEY         SUNNY     64  61  88 CALM      29.97S
SYRACUSE       PTSUNNY   65  52  62 VRB6      29.99S
$$

!PAZ038>040-043-044-047-048-072-241400
...NORTHEAST PENNSYLVANIA...

CITY           SKY/WX    TMP DP  RH WIND       PRES   REMARKS
HAZLETON       CLOUDY    64  57  77 N10G16    29.99S
SCRANTON       PTSUNNY   68  56  65 N8        29.94F
TOWANDA*       MOSUNNY   64  57  77 N7        29.98S
$$
&&
KEY
WCI = WIND CHILL INDEX
VSB = VISIBILITY
HX  = HEAT INDEX
$$


USA.gov is the U.S. government's official web portal to all federal, state and local government web resources and services.